This is the latest recevied weather packets stored in our database for station/object LX0APE-4. If no packets are shown the sender has not sent any weather packets the latest 10 day(s).
| Time | Temp. | Humidity | Pressure | Rain* | Wind** | Luminosity | Snow |
|---|---|---|---|---|---|---|---|
| 1776949940 | 25.56° C | 21% | 5022.8 hPa | 0 mm | - | - | - |
| 1776949640 | 25° C | 23% | 5022.8 hPa | 0 mm | - | - | - |
| 1776949340 | 24.44° C | 23% | 5023 hPa | 0 mm | - | - | - |
| 1776949040 | 23.89° C | 24% | 5023 hPa | 0 mm | - | - | - |
| 1776948740 | 23.89° C | 24% | 5022.9 hPa | 0 mm | - | - | - |
| 1776948440 | 23.33° C | 25% | 5023 hPa | 0 mm | - | - | - |
| 1776948141 | 22.78° C | 26% | 5023 hPa | 0 mm | - | - | - |
| 1776947840 | 22.22° C | 26% | 5023.2 hPa | 0 mm | - | - | - |
| 1776947540 | 22.22° C | 25% | 5023.2 hPa | 0 mm | - | - | - |
| 1776947240 | 21.67° C | 29% | 5023 hPa | 0 mm | - | - | - |
| 1776946940 | 21.11° C | 29% | 5023.2 hPa | 0 mm | - | - | - |
| 1776946640 | 21.11° C | 30% | 5023.4 hPa | 0 mm | - | - | - |
| 1776946340 | 20.56° C | 30% | 5023.4 hPa | 0 mm | - | - | - |
| 1776946041 | 20° C | 30% | 5023.3 hPa | 0 mm | - | - | - |
| 1776945740 | 20.56° C | 31% | 5023.5 hPa | 0 mm | - | - | - |
| 1776945441 | 20° C | 32% | 5023.5 hPa | 0 mm | - | - | - |
| 1776945141 | 19.44° C | 33% | 5023.6 hPa | 0 mm | - | - | - |
| 1776944841 | 19.44° C | 32% | 5023.6 hPa | 0 mm | - | - | - |
| 1776944541 | 19.44° C | 33% | 5023.7 hPa | 0 mm | - | - | - |
| 1776944241 | 19.44° C | 33% | 5023.7 hPa | 0 mm | - | - | - |
| 1776943941 | 18.89° C | 34% | 5023.6 hPa | 0 mm | - | - | - |
| 1776943641 | 18.89° C | 34% | 5023.8 hPa | 0 mm | - | - | - |
| 1776943341 | 18.89° C | 35% | 5024 hPa | 0 mm | - | - | - |
| 1776943043 | 18.33° C | 35% | 5023.8 hPa | 0 mm | - | - | - |
| 1776942741 | 18.33° C | 34% | 5023.8 hPa | 0 mm | - | - | - |
* Rain latest hour (hover to see other rain measurements)
** Current wind speed in m/s (hover to see current wind gust speed)